When you browse on this site, cookies collect data to enhance your experience and personalize the content and advertising you see.
Visit our Privacy Policy to learn more. By continuing to use the site, you agree to this use of cookies and data.
  • In Sweden
  • List of Countries
  • For 7 days
  • Water Temperature
  • Weather Map
  • Weather Widgets
  • user-avatar
    Login

    Hourly Weather Estelí

    Today, 30 May, Saturday

    Time Temperature Precipitation Wind Pressure Humidity
    00:00 +22°C° 0 mm 1 mps 686 mmHg 96%
    01:00 +22°C° 0.8 mm 1 mps 686 mmHg 96%
    02:00 +22°C° 0.8 mm 1 mps 686 mmHg 95%
    03:00 +22°C° 0.8 mm 1 mps 685 mmHg 95%
    04:00 +22°C° 0.9 mm 1 mps 685 mmHg 95%
    05:00 +22°C° 0.9 mm 1 mps 685 mmHg 96%
    06:00 +22°C° 0.9 mm 1 mps 686 mmHg 96%
    07:00 +22°C° 2.8 mm 1 mps 686 mmHg 96%
    08:00 +22°C° 2.8 mm 1 mps 686 mmHg 96%
    09:00 +22°C° 2.8 mm 1 mps 687 mmHg 97%
    10:00 +22°C° 1.4 mm 1 mps 687 mmHg 95%
    11:00 +22°C° 1.4 mm 1 mps 687 mmHg 94%
    12:00 +23°C° 1.4 mm 1 mps 687 mmHg 93%
    13:00 +23°C° 0.3 mm 1 mps 686 mmHg 90%
    14:00 +24°C° 0.3 mm 1 mps 686 mmHg 87%
    15:00 +24°C° 0.3 mm 1 mps 685 mmHg 85%
    16:00 +24°C° 0.3 mm 1 mps 686 mmHg 87%
    17:00 +21°C° 0.3 mm 0 mps 686 mmHg 90%
    18:00 +21°C° 0.3 mm 0 mps 686 mmHg 93%
    19:00 +20°C° 0.1 mm 0 mps 686 mmHg 93%
    20:00 +20°C° 0.1 mm 0 mps 687 mmHg 93%
    21:00 +20°C° 0.1 mm 0 mps 687 mmHg 93%
    22:00 +20°C° 0 mm 0 mps 687 mmHg 93%
    23:00 +19°C° 0 mm 0 mps 686 mmHg 93%

    Tomorrow, 31 May, Sunday

    Time Temperature Precipitation Wind Pressure Humidity
    00:00 +21°C° 0 mm 1 mps 686 mmHg 93%
    01:00 +19°C° 0 mm 0 mps 686 mmHg 93%
    02:00 +19°C° 0 mm 0 mps 685 mmHg 92%
    03:00 +19°C° 0 mm 0 mps 685 mmHg 92%
    04:00 +19°C° 0.1 mm 0 mps 685 mmHg 92%
    05:00 +19°C° 0.1 mm 0 mps 686 mmHg 92%
    06:00 +22°C° 0.1 mm 1 mps 686 mmHg 91%
    07:00 +20°C° 0.5 mm 0 mps 686 mmHg 91%
    08:00 +20°C° 0.5 mm 0 mps 687 mmHg 91%
    09:00 +20°C° 0.5 mm 0 mps 687 mmHg 91%
    10:00 +23°C° 1 mm 1 mps 687 mmHg 90%
    11:00 +23°C° 1 mm 1 mps 687 mmHg 89%
    12:00 +24°C° 1 mm 1 mps 687 mmHg 88%
    13:00 +24°C° 0.4 mm 1 mps 686 mmHg 89%
    14:00 +24°C° 0.4 mm 1 mps 686 mmHg 90%
    15:00 +23°C° 0.4 mm 1 mps 685 mmHg 91%
    16:00 +23°C° 0.2 mm 1 mps 685 mmHg 93%
    17:00 +22°C° 0.2 mm 1 mps 685 mmHg 94%
    18:00 +20°C° 0.2 mm 0 mps 685 mmHg 96%
    19:00 +20°C° 0.1 mm 0 mps 686 mmHg 95%
    20:00 +20°C° 0.1 mm 0 mps 686 mmHg 94%
    21:00 +20°C° 0.1 mm 0 mps 687 mmHg 93%
    22:00 +20°C° 0.1 mm 0 mps 687 mmHg 92%
    23:00 +19°C° 0.1 mm 0 mps 687 mmHg 92%

    Day after tomorrow, 1 June, Monday

    Time Temperature Precipitation Wind Pressure Humidity
    00:00 +19°C° 0.1 mm 0 mps 686 mmHg 92%
    01:00 +19°C° 0.8 mm 0 mps 686 mmHg 92%
    02:00 +19°C° 0.8 mm 0 mps 686 mmHg 92%
    03:00 +19°C° 0.8 mm 0 mps 686 mmHg 93%
    04:00 +19°C° 0.7 mm 0 mps 686 mmHg 93%
    05:00 +21°C° 0.7 mm 1 mps 686 mmHg 92%
    06:00 +21°C° 0.7 mm 1 mps 686 mmHg 92%
    07:00 +22°C° 1.4 mm 1 mps 686 mmHg 91%
    08:00 +22°C° 1.4 mm 1 mps 687 mmHg 90%
    09:00 +21°C° 1.4 mm 0 mps 688 mmHg 89%
    10:00 +23°C° 2.7 mm 1 mps 687 mmHg 89%
    11:00 +23°C° 2.7 mm 1 mps 687 mmHg 89%
    12:00 +23°C° 2.7 mm 1 mps 686 mmHg 90%
    13:00 +24°C° 1 mm 1 mps 686 mmHg 89%
    14:00 +24°C° 1 mm 1 mps 686 mmHg 88%
    15:00 +24°C° 1 mm 1 mps 686 mmHg 87%
    16:00 +23°C° 0.5 mm 1 mps 686 mmHg 89%
    17:00 +23°C° 0.5 mm 1 mps 686 mmHg 91%
    18:00 +22°C° 0.5 mm 1 mps 686 mmHg 92%
    19:00 +22°C° 0.4 mm 1 mps 686 mmHg 93%
    20:00 +22°C° 0.4 mm 1 mps 687 mmHg 93%
    21:00 +20°C° 0.4 mm 0 mps 687 mmHg 94%
    22:00 +21°C° 0.2 mm 1 mps 687 mmHg 93%
    23:00 +21°C° 0.2 mm 1 mps 687 mmHg 93%

    2 June, Tuesday

    Time Temperature Precipitation Wind Pressure Humidity
    00:00 +21°C° 0.2 mm 1 mps 687 mmHg 92%
    01:00 +21°C° 0.3 mm 1 mps 686 mmHg 92%
    02:00 +21°C° 0.3 mm 1 mps 686 mmHg 93%
    03:00 +21°C° 0.3 mm 1 mps 686 mmHg 93%
    04:00 +21°C° 0.7 mm 1 mps 686 mmHg 93%
    05:00 +21°C° 0.7 mm 1 mps 686 mmHg 94%
    06:00 +21°C° 0.7 mm 1 mps 686 mmHg 94%
    07:00 +23°C° 0.3 mm 1 mps 687 mmHg 90%
    08:00 +24°C° 0.3 mm 1 mps 687 mmHg 85%
    09:00 +25°C° 0.3 mm 1 mps 688 mmHg 81%
    10:00 +26°C° 1.7 mm 1 mps 688 mmHg 79%
    11:00 +27°C° 1.7 mm 1 mps 687 mmHg 77%
    12:00 +28°C° 1.7 mm 1 mps 687 mmHg 75%
    13:00 +28°C° 2.8 mm 1 mps 686 mmHg 77%
    14:00 +27°C° 2.8 mm 1 mps 686 mmHg 79%
    15:00 +27°C° 2.8 mm 1 mps 685 mmHg 81%
    16:00 +26°C° 3.2 mm 1 mps 685 mmHg 85%
    17:00 +24°C° 3.2 mm 1 mps 685 mmHg 90%
    18:00 +23°C° 3.2 mm 1 mps 686 mmHg 94%
    19:00 +21°C° 4.8 mm 0 mps 686 mmHg 95%
    20:00 +21°C° 4.8 mm 0 mps 687 mmHg 96%
    21:00 +20°C° 4.8 mm 0 mps 687 mmHg 96%
    22:00 +20°C° 2 mm 0 mps 687 mmHg 96%
    23:00 +22°C° 2 mm 1 mps 687 mmHg 96%

    3 June, Wednesday

    Time Temperature Precipitation Wind Pressure Humidity
    00:00 +22°C° 2 mm 1 mps 687 mmHg 96%
    01:00 +22°C° 0.4 mm 1 mps 686 mmHg 96%
    02:00 +22°C° 0.4 mm 1 mps 686 mmHg 95%
    03:00 +22°C° 0.4 mm 1 mps 686 mmHg 95%
    04:00 +21°C° 1.1 mm 2 mps 686 mmHg 95%
    05:00 +21°C° 1.1 mm 2 mps 686 mmHg 95%
    06:00 +21°C° 1.1 mm 2 mps 686 mmHg 95%
    07:00 +21°C° 1.6 mm 2 mps 686 mmHg 95%
    08:00 +21°C° 1.6 mm 2 mps 686 mmHg 94%
    09:00 +21°C° 1.6 mm 2 mps 687 mmHg 93%
    10:00 +23°C° 0 mm 2 mps 686 mmHg 90%
    11:00 +24°C° 0 mm 1 mps 686 mmHg 87%
    12:00 +25°C° 0 mm 1 mps 686 mmHg 84%
    13:00 +25°C° 0.1 mm 1 mps 685 mmHg 83%
    14:00 +25°C° 0.1 mm 1 mps 685 mmHg 81%
    15:00 +26°C° 0.1 mm 1 mps 685 mmHg 80%
    16:00 +25°C° 1.1 mm 1 mps 685 mmHg 84%
    17:00 +24°C° 1.1 mm 1 mps 685 mmHg 88%
    18:00 +23°C° 1.1 mm 1 mps 685 mmHg 91%
    19:00 +23°C° 0.7 mm 1 mps 685 mmHg 92%
    20:00 +23°C° 0.7 mm 1 mps 686 mmHg 92%
    21:00 +22°C° 0.7 mm 1 mps 686 mmHg 92%
    22:00 +22°C° 0.1 mm 1 mps 686 mmHg 93%
    23:00 +22°C° 0.1 mm 1 mps 686 mmHg 93%

    4 June, Thursday

    Time Temperature Precipitation Wind Pressure Humidity
    00:00 +22°C° 0.1 mm 1 mps 685 mmHg 93%
    01:00 +21°C° 0 mm 1 mps 685 mmHg 93%
    02:00 +21°C° 0 mm 1 mps 685 mmHg 93%
    03:00 +21°C° 0 mm 1 mps 684 mmHg 94%
    04:00 +21°C° 0 mm 1 mps 685 mmHg 94%
    05:00 +21°C° 0 mm 1 mps 685 mmHg 94%
    06:00 +21°C° 0 mm 1 mps 685 mmHg 94%
    07:00 +22°C° 0 mm 1 mps 686 mmHg 87%
    08:00 +24°C° 0 mm 1 mps 686 mmHg 80%
    09:00 +25°C° 0 mm 1 mps 687 mmHg 73%
    10:00 +26°C° 0 mm 1 mps 687 mmHg 71%
    11:00 +27°C° 0 mm 1 mps 686 mmHg 68%
    12:00 +27°C° 0 mm 1 mps 686 mmHg 66%
    13:00 +27°C° 0.6 mm 1 mps 685 mmHg 67%
    14:00 +28°C° 0.6 mm 1 mps 685 mmHg 69%
    15:00 +28°C° 0.6 mm 1 mps 684 mmHg 70%
    16:00 +26°C° 1.8 mm 1 mps 684 mmHg 76%
    17:00 +25°C° 1.8 mm 1 mps 684 mmHg 83%
    18:00 +24°C° 1.8 mm 1 mps 684 mmHg 89%
    19:00 +21°C° 1.2 mm 0 mps 685 mmHg 89%
    20:00 +21°C° 1.2 mm 0 mps 685 mmHg 90%
    21:00 +20°C° 1.2 mm 0 mps 686 mmHg 90%
    22:00 +20°C° 0.7 mm 0 mps 686 mmHg 91%
    23:00 +20°C° 0.7 mm 0 mps 685 mmHg 91%
    Show more